Hamilton Island, Australia

10:17 AM AEST on September 22, 2017 (GMT +1000)
Hamilton Island

Weather History for YBHM - April, 2014

Change the Weather History Date:

Thursday, April 24, 2014

  Actual Average Record
Temperature  
Mean Temperature 76 °F -  
Max Temperature 80 °F - - ()
Min Temperature 72 °F - - ()
Cooling Degree Days 11    
Growing Degree Days 26 (Base 50)    
Moisture  
Dew Point 71 °F    
Average Humidity 83    
Maximum Humidity 94    
Minimum Humidity 68    
Precipitation  
Precipitation 0.01 in - - ()
Sea Level Pressure  
Sea Level Pressure 29.93 in    
Wind  
Wind Speed 19 mph ()    
Max Wind Speed 26 mph    
Max Gust Speed -    
Visibility 6.2 miles    
Events      
T = Trace of Precipitation, MM = Missing Value Source: Averaged Metar Reports

Daily Weather History Graph

Daily Weather History Graph

Search for Another Location

Airport or City:

Trip Planner

Search our weather history database for the weather conditions in past years. The results will help you decide how hot, cold, wet, or windy it might be!

Date:

Astronomy

Apr. 24, 2014 Rise Set
Actual Time 6:18 AM AEST 5:46 PM AEST
Civil Twilight 5:55 AM AEST 6:09 PM AEST
Nautical Twilight 5:29 AM AEST 6:35 PM AEST
Astronomical Twilight 5:03 AM AEST 7:01 PM AEST
Moon 1:09 AM AEST (4/24) 2:01 PM AEST (4/24)
Length of Visible Light 12h 13m
Length of Day
11h 28m
Waning Crescent, 30% of the Moon is Illuminated
Apr 24
Waning Crescent
Apr 29
New
May 7
First Quarter
May 15
Full
May 21
Last Quarter

Hourly Weather History & Observations

Time (AEST) Temp. Heat Index Dew Point Humidity Pressure Visibility Wind Dir Wind Speed Gust Speed Precip Events Conditions
12:00 AM 74 °F - 72 °F 92% 29.96 in 6 mi ESE 26.5 mph - -   Overcast
12:00 AM 73.4 °F - 71.6 °F 94% 29.95 in 5.6 mi ESE 26.5 mph - N/A   Overcast
12:20 AM 75.2 °F - 71.6 °F 89% 29.95 in 6.2 mi East 26.5 mph - N/A   Overcast
1:00 AM 75.2 °F - 71.6 °F 89% 29.92 in 6.2 mi East 26.5 mph - N/A   Mostly Cloudy
1:30 AM 75.2 °F - 69.8 °F 83% 29.92 in 6.2 mi ESE 23.0 mph - N/A   Overcast
1:52 AM 75.2 °F - 69.8 °F 83% 29.92 in 6.2 mi ESE 20.7 mph - N/A   Overcast
2:00 AM 75.2 °F - 69.8 °F 83% 29.92 in 6.2 mi ESE 20.7 mph - N/A   Overcast
2:02 AM 75.2 °F - 69.8 °F 83% 29.92 in 6.2 mi ESE 19.6 mph - N/A   Overcast
2:30 AM 75.2 °F - 69.8 °F 83% 29.92 in 6.2 mi ESE 19.6 mph - N/A   Overcast
3:00 AM 75 °F - 69 °F 76% 29.91 in - ESE 21.9 mph - -   Overcast
3:00 AM 75.2 °F - 69.8 °F 83% 29.89 in 6.2 mi ESE 21.9 mph - N/A   Overcast
3:30 AM 75.2 °F - 69.8 °F 83% 29.92 in 6.2 mi ESE 21.9 mph - N/A   Mostly Cloudy
4:00 AM 75.2 °F - 69.8 °F 83% 29.89 in 6.2 mi ESE 20.7 mph - N/A   Overcast
5:00 AM 75.2 °F - 69.8 °F 83% 29.92 in 6.2 mi ESE 19.6 mph - N/A   Mostly Cloudy
6:00 AM 75 °F - 71 °F 83% 29.92 in - SE 18.4 mph - -  
6:00 AM 75.2 °F - 71.6 °F 89% 29.92 in 6.2 mi SE 18.4 mph - N/A   Overcast
6:30 AM 75.2 °F - 71.6 °F 89% 29.92 in 6.2 mi SE 16.1 mph - N/A   Overcast
6:50 AM 75.2 °F - 71.6 °F 89% 29.95 in 6.2 mi ESE 16.1 mph - N/A   Overcast
7:00 AM 75.2 °F - 71.6 °F 89% 29.92 in 6.2 mi ESE 18.4 mph - N/A   Overcast
7:11 AM 75.2 °F - 71.6 °F 89% 29.95 in 6.2 mi ESE 20.7 mph - N/A   Overcast
7:29 AM 77.0 °F - 69.8 °F 78% 29.95 in 6.2 mi East 23.0 mph - N/A   Mostly Cloudy
7:30 AM 77.0 °F - 69.8 °F 78% 29.95 in 6.2 mi East 23.0 mph - N/A   Mostly Cloudy
8:00 AM 77.0 °F - 69.8 °F 78% 29.95 in 6.2 mi East 21.9 mph - N/A   Mostly Cloudy
8:30 AM 77.0 °F - 71.6 °F 83% 29.95 in 6.2 mi East 21.9 mph - N/A   Mostly Cloudy
9:00 AM 76 °F - 71 °F 78% 29.96 in - East 20.7 mph - -   Overcast
9:00 AM 77.0 °F - 69.8 °F 78% 29.95 in 6.2 mi East 20.7 mph - N/A   Mostly Cloudy
9:33 AM 77.0 °F - 71.6 °F 83% 29.95 in 6.2 mi East 17.3 mph - N/A   Overcast
9:54 AM 77.0 °F - 69.8 °F 78% 29.95 in 6.2 mi ENE 18.4 mph - N/A   Overcast
10:00 AM 78.8 °F - 69.8 °F 74% 29.95 in 6.2 mi ENE 18.4 mph - N/A   Overcast
10:30 AM 78.8 °F - 68.0 °F 69% 29.95 in 6.2 mi East 19.6 mph - N/A   Mostly Cloudy
11:00 AM 78.8 °F - 69.8 °F 74% 29.95 in 6.2 mi East 19.6 mph - N/A   Mostly Cloudy
11:30 AM 78.8 °F - 69.8 °F 74% 29.92 in 6.2 mi ENE 12.7 mph - N/A   Overcast
12:00 PM 79 °F - 70 °F 68% 29.92 in - East 15.0 mph - -  
12:00 PM 78.8 °F - 69.8 °F 74% 29.92 in 6.2 mi East 15.0 mph - N/A   Scattered Clouds
12:30 PM 78.8 °F - 71.6 °F 78% 29.92 in 6.2 mi East 15.0 mph - N/A   Scattered Clouds
1:00 PM 78.8 °F - 69.8 °F 74% 29.92 in 6.2 mi East 12.7 mph - N/A   Overcast
1:30 PM 80.6 °F 84.6 °F 71.6 °F 74% 29.89 in 6.2 mi ESE 11.5 mph - N/A   Mostly Cloudy
2:00 PM 78.8 °F - 69.8 °F 74% 29.89 in 6.2 mi East 12.7 mph - N/A   Mostly Cloudy
2:30 PM 78.8 °F - 71.6 °F 78% 29.89 in 6.2 mi ESE 12.7 mph - N/A   Mostly Cloudy
3:00 PM 78 °F - 71 °F 72% 29.88 in - SE 10.4 mph - -  
3:00 PM 78.8 °F - 71.6 °F 78% 29.89 in 6.2 mi SE 10.4 mph - N/A   Mostly Cloudy
3:30 PM 77.0 °F - 71.6 °F 83% 29.89 in 6.2 mi SSE 13.8 mph - N/A   Scattered Clouds
4:00 PM 75.2 °F - 71.6 °F 89% 29.86 in 6.2 mi SSE 16.1 mph - N/A   Mostly Cloudy
4:06 PM 75.2 °F - 71.6 °F 89% 29.86 in 6.2 mi SSE 17.3 mph - N/A   Mostly Cloudy
4:29 PM 77.0 °F - 71.6 °F 83% 29.89 in 6.2 mi SSE 13.8 mph - N/A   Mostly Cloudy
4:30 PM 77.0 °F - 71.6 °F 83% 29.89 in 6.2 mi SSE 13.8 mph - N/A   Mostly Cloudy
4:58 PM 75.2 °F - 71.6 °F 89% 29.89 in 6.2 mi SSE 16.1 mph - N/A   Overcast
5:00 PM 75.2 °F - 71.6 °F 89% 29.89 in 6.2 mi SSE 16.1 mph - N/A   Overcast
5:30 PM 75.2 °F - 71.6 °F 89% 29.89 in 6.2 mi SSE 18.4 mph - N/A   Mostly Cloudy
6:00 PM 75 °F - 72 °F 87% 29.92 in - SSE 19.6 mph - -   Overcast
6:00 PM 75.2 °F - 71.6 °F 89% 29.92 in 6.2 mi SSE 19.6 mph - N/A   Overcast
6:30 PM 75.2 °F - 71.6 °F 89% 29.92 in 6.2 mi SE 20.7 mph - N/A   Overcast
7:00 PM 75.2 °F - 71.6 °F 89% 29.92 in 6.2 mi SE 18.4 mph - N/A   Mostly Cloudy
7:34 PM 75.2 °F - 71.6 °F 89% 29.95 in 6.2 mi SSE 19.6 mph - N/A   Mostly Cloudy
8:00 PM 75.2 °F - 71.6 °F 89% 29.95 in 6.2 mi SE 26.5 mph - N/A   Overcast
8:30 PM 75.2 °F - 69.8 °F 83% 29.95 in 6.2 mi SSE 21.9 mph - N/A   Overcast
9:00 PM 74 °F - 70 °F 83% 29.97 in - SSE 23.0 mph - -   Overcast
9:00 PM 73.4 °F - 69.8 °F 88% 29.98 in 6.2 mi SSE 23.0 mph - N/A   Overcast
9:30 PM 73.4 °F - 69.8 °F 88% 29.98 in 6.2 mi SSE 23.0 mph - N/A   Overcast
10:00 PM 73.4 °F - 69.8 °F 88% 29.98 in 6.2 mi SSE 19.6 mph - N/A   Overcast
10:18 PM 73.4 °F - 69.8 °F 88% 29.98 in 6.2 mi SSE 20.7 mph - N/A   Overcast
10:30 PM 73.4 °F - 69.8 °F 88% 29.98 in 6.2 mi SSE 21.9 mph - N/A   Overcast
11:00 PM 73.4 °F - 69.8 °F 88% 29.98 in 6.2 mi SSE 21.9 mph - N/A   Mostly Cloudy
11:30 PM 73.4 °F - 68.0 °F 83% 29.95 in 6.2 mi SSE 17.3 mph - N/A   Mostly Cloudy